[[{"header":{"parameterUnit":"m.s-1","parameterCategory":1,"la1":30.2991,"la2":30.254,"lo1":-89.0895,"lo2":-89.0444,"dy":0.0017,"dx":0.0017,"nx":28,"ny":28,"refTime":"2024-08-15T03:00:00:Z","depth":0,"parameterNumber":2,"parameterNumberName":"U-component_of_WINDS"},"data":[0,0,0,0,0,0,0,0,0,0,0,0,0,0,0,0,0,0,0,0,0,0,0,0,0,0,0,0,0,0,0,0,0,0,0,0,0,0,0,0,0,0,0,0,0,0,0,0,0,0,0,0,0,0,0,0,0,0,0.1814,0.1815,0,0.1852,0.1852,0.1853,0.1856,0.1856,0.1856,0.1855,0.1897,0.1898,0.19,0,0,0,0,0,0,0,0,0,0,0,0,0,0.1749,0.175,0.1814,0.1815,0.1815,0.1852,0.1852,0.1853,0.1856,0.1856,0.1855,0.1855,0.1896,0.1898,0.19,0,0,0,0,0,0,0,0,0,0,0,0,0,0.1781,0.1751,0.1814,0.1821,0.1822,0.1852,0.1852,0.1853,0.1857,0.1856,0.1855,0.1855,0.1896,0.1898,0.19,0.1926,0,0,0.1907,0.1908,0,0,0,0,0,0,0,0,0.1779,0.1784,0.182,0.1821,0.1822,0.1849,0.1844,0.1877,0.1857,0.1844,0.1855,0.1854,0.1882,0.1885,0.1893,0.1928,0.1929,0.1907,0.1908,0.1909,0.191,0,0,0,0,0,0,0,0.1777,0.1782,0.1829,0.182,0.1822,0.1824,0.1828,0.1851,0.1866,0.1845,0.1845,0.1849,0.1882,0.1891,0.1894,0.193,0.1907,0.1909,0.191,0.1911,0.1987,0.1987,0,0,0,0,0,0,0.1773,0.178,0.1828,0.183,0.1799,0.1825,0.183,0.1841,0.1865,0.1868,0.185,0.1849,0.1888,0.1892,0.1896,0.1927,0.1909,0.1911,0.1913,0.1986,0.1987,0.1988,0,0,0,0,0,0,0.1772,0.1777,0.1827,0.1805,0.1812,0.1827,0.184,0.1842,0.1851,0.1869,0.1872,0.1856,0.1887,0.1893,0.1918,0.1928,0.1912,0.1914,0.1985,0.1986,0.1987,0.199,0,0,0,0,0,0,0.177,0.1777,0.1786,0.1805,0.1813,0.1847,0.184,0.1843,0.1854,0.1854,0.1876,0.1879,0.1887,0.1915,0.192,0.1931,0.1916,0.1985,0.1986,0.1987,0.1989,0.1991,0.1992,0,0,0,0,0,0.1768,0.1786,0.1786,0.1792,0.1824,0.1848,0.1852,0.186,0.1855,0.1865,0.1877,0.1878,0.1926,0.1917,0.1923,0.1935,0.1984,0.1985,0.1987,0.1988,0.199,0.1992,0,0,0,0,0,0,0.1769,0.1789,0.1789,0.1815,0.1829,0.1848,0.1861,0.1863,0.188,0.1879,0.189,0.1895,0.1919,0.193,0.1919,0.1961,0.1955,0.1958,0.1953,0.1956,0.1957,0.1954,0.1918,0,0,0,0,0,0.1772,0.1788,0.1805,0.1826,0.1833,0.1845,0.1856,0.1861,0.1877,0.1884,0.1897,0.1914,0.1932,0.1945,0.1963,0.199,0.1995,0.2002,0.2003,0.2005,0.2007,0.2022,0.2025,0.1993,0.1993,0.1993,0,0,0.1779,0.1792,0.1801,0.1826,0.1838,0.1855,0.1851,0.187,0.1883,0.1887,0.1911,0.1922,0.1941,0.1967,0.1979,0.1976,0.2017,0.2007,0.2008,0.2009,0.2024,0.2027,0.2029,0.1994,0.1994,0.1993,0,0,0.18,0.1811,0.1829,0.1841,0.1859,0.1867,0.1871,0.189,0.1896,0.192,0.1924,0.194,0.1972,0.1986,0.1997,0.2022,0.2024,0.2028,0.2037,0.2051,0.2054,0.2056,0.2065,0.2068,0.203,0.203,0.203,0,0.1807,0.1832,0.1839,0.1857,0.1868,0.1871,0.189,0.1901,0.1925,0.1932,0.1929,0.1969,0.1982,0.2011,0.2017,0.2026,0.2031,0.2025,0.2053,0.2055,0.2058,0.2066,0.2069,0.2031,0.203,0.203,0.203,0,0.1839,0.1856,0.1869,0.1889,0.1902,0.1921,0.1931,0.1943,0.1947,0.1956,0.198,0.1996,0.2017,0.2025,0.2029,0.2054,0.2052,0.205,0.2044,0.2061,0.2069,0.2072,0.2031,0.2031,0.2031,0.2031,0,0,0.1862,0.1886,0.189,0.19,0.1919,0.1933,0.1952,0.1971,0.1981,0.1997,0.2014,0.204,0.2039,0.2051,0.2057,0.207,0.2088,0.2067,0.2067,0.207,0.2117,0.2117,0.2121,0.209,0.2091,0.2091,0.2115,0,0.1885,0.1917,0.1924,0.1952,0.1969,0.1972,0.1988,0.2002,0.2011,0.2027,0.2037,0.2055,0.2052,0.2059,0.2072,0.2083,0.2098,0.2082,0.2106,0.2106,0.21,0.2126,0.2127,0.2148,0.2118,0.2119,0.2119,0,0.1917,0.1932,0.1961,0.1978,0.1985,0.1999,0.2017,0.2032,0.2048,0.2054,0.2067,0.2072,0.2092,0.2084,0.2113,0.2102,0.2112,0.2119,0.212,0.2122,0.2114,0.2129,0.2156,0.2159,0.2125,0.2124,0.2124,0,0.1931,0.1958,0.1979,0.1987,0.2007,0.2017,0.2026,0.2042,0.2053,0.2069,0.2076,0.2095,0.2106,0.2121,0.213,0.2124,0.2158,0.2151,0.2163,0.2163,0.217,0.217,0.2199,0.2177,0.2177,0.2177,0.2177,0,0.1956,0.1974,0.1986,0.1999,0.2019,0.2026,0.2047,0.2056,0.2069,0.2085,0.2089,0.2103,0.2115,0.2132,0.2139,0.2161,0.2166,0.2172,0.2173,0.2171,0.217,0.2178,0.2177,0.2178,0.2177,0.2177,0.2177,0,0.1975,0.1983,0.2006,0.2023,0.2027,0.2042,0.2056,0.2069,0.2077,0.2097,0.2102,0.2115,0.2135,0.2146,0.217,0.2176,0.22,0.2201,0.2194,0.2195,0.2206,0.2205,0.2241,0.2247,0.2221,0.2221,0.2222,0,0.199,0.2004,0.2021,0.2031,0.204,0.2056,0.2067,0.2075,0.2086,0.2105,0.2116,0.2135,0.2151,0.2182,0.2195,0.2213,0.2215,0.2227,0.2218,0.2215,0.2215,0.2214,0.2215,0.2228,0.2228,0.2229,0.2229,0,0.2016,0.202,0.2035,0.2051,0.2064,0.2077,0.2091,0.2099,0.211,0.2123,0.2141,0.2154,0.2178,0.2197,0.2217,0.2227,0.223,0.2231,0.2235,0.2233,0.2228,0.223,0.2198,0.223,0.223,0.223,0.223,0.223,0.2034,0.2046,0.206,0.2076,0.2087,0.2099,0.2112,0.2121,0.2137,0.2157,0.2161,0.2181,0.2197,0.2223,0.2234,0.225,0.2248,0.2253,0.2255,0.2256,0.2256,0.2225,0.2254,0.2254,0.2254,0.2254,0.2254,0,0.206,0.2069,0.2084,0.2102,0.2115,0.2115,0.213,0.2141,0.2158,0.2172,0.2187,0.2209,0.2227,0.2241,0.226,0.227,0.2272,0.2275,0.2274,0.2276,0.2257,0.2252,0.2273,0.2273,0.2273,0.2273,0.2273,0.2273,0.2075,0.2095,0.21,0.2126,0.2135,0.2153,0.2162,0.2173,0.2184,0.2208,0.2222,0.2231,0.2245,0.2264,0.2281,0.2285,0.2292,0.2294,0.2298,0.228,0.2278,0.2276,0.2271,0.2296,0.2296,0.2316,0.2316,0.2316]},{"header":{"parameterUnit":"m.s-1","parameterCategory":1,"la1":30.2991,"la2":30.254,"lo1":-89.0895,"lo2":-89.0444,"dy":0.0017,"dx":0.0017,"nx":28,"ny":28,"refTime":"2024-08-15T03:00:00:Z","depth":0,"parameterNumber":3,"parameterNumberName":"V-component_of_WINDS"},"data":[0,0,0,0,0,0,0,0,0,0,0,0,0,0,0,0,0,0,0,0,0,0,0,0,0,0,0,0,0,0,0,0,0,0,0,0,0,0,0,0,0,0,0,0,0,0,0,0,0,0,0,0,0,0,0,0,0,0,1.269,1.2689,0,1.2622,1.2621,1.262,1.2611,1.2612,1.2613,1.2613,1.2538,1.2536,1.2533,0,0,0,0,0,0,0,0,0,0,0,0,0,1.2805,1.2803,1.269,1.2689,1.2688,1.2622,1.2621,1.262,1.2611,1.2612,1.2613,1.2614,1.2539,1.2536,1.2533,0,0,0,0,0,0,0,0,0,0,0,0,0,1.2748,1.2802,1.269,1.2676,1.2674,1.2622,1.2621,1.262,1.2611,1.2612,1.2613,1.2614,1.254,1.2536,1.2532,1.2488,0,0,1.252,1.2519,0,0,0,0,0,0,0,0,1.2751,1.2743,1.2679,1.2677,1.2675,1.2626,1.2634,1.2576,1.2611,1.2635,1.2613,1.2615,1.2566,1.256,1.2545,1.2485,1.2481,1.252,1.2517,1.2516,1.2515,0,0,0,0,0,0,0,1.2755,1.2746,1.2663,1.2678,1.2675,1.2671,1.2664,1.2623,1.2596,1.2633,1.2632,1.2624,1.2565,1.2549,1.2543,1.248,1.252,1.2516,1.2514,1.2513,1.2377,1.2376,0,0,0,0,0,0,1.2762,1.275,1.2665,1.2661,1.2716,1.2668,1.266,1.2641,1.2596,1.259,1.2624,1.2624,1.2555,1.2548,1.2541,1.2484,1.2516,1.2512,1.251,1.2378,1.2377,1.2375,0,0,0,0,0,0,1.2765,1.2755,1.2668,1.2705,1.2694,1.2665,1.2643,1.2639,1.2623,1.2589,1.2584,1.2612,1.2556,1.2546,1.2501,1.2481,1.251,1.2507,1.238,1.2378,1.2376,1.2371,0,0,0,0,0,0,1.2768,1.2756,1.2741,1.2705,1.2692,1.2631,1.2642,1.2637,1.2617,1.2617,1.2577,1.2572,1.2556,1.2507,1.2497,1.2476,1.2504,1.2381,1.2379,1.2377,1.2373,1.2369,1.2366,0,0,0,0,0,1.2772,1.2741,1.274,1.273,1.2672,1.263,1.2622,1.2606,1.2615,1.2598,1.2576,1.2573,1.2485,1.2502,1.2491,1.2469,1.2382,1.2379,1.2377,1.2374,1.237,1.2366,0,0,0,0,0,0,1.2773,1.2736,1.2734,1.2691,1.2664,1.2629,1.2607,1.2603,1.2571,1.2572,1.2552,1.2543,1.2498,1.2479,1.2499,1.2422,1.2434,1.2429,1.2436,1.2432,1.2429,1.2433,1.25,0,0,0,0,0,1.2769,1.274,1.2709,1.2673,1.266,1.2636,1.2617,1.2607,1.2577,1.2565,1.254,1.251,1.2475,1.2453,1.2419,1.2371,1.236,1.2349,1.2346,1.2344,1.2338,1.2308,1.2302,1.2366,1.2366,1.2366,0,0,1.2759,1.2735,1.2718,1.2673,1.2651,1.2619,1.2626,1.2593,1.2568,1.256,1.2515,1.2496,1.246,1.2413,1.239,1.2395,1.2319,1.234,1.2338,1.2334,1.2305,1.2299,1.2293,1.2364,1.2365,1.2365,0,0,1.2723,1.2704,1.2671,1.2649,1.2616,1.26,1.2592,1.2557,1.2544,1.25,1.2493,1.2462,1.2404,1.2378,1.2357,1.2311,1.2305,1.2301,1.2282,1.2253,1.2248,1.2243,1.2224,1.2217,1.2296,1.2296,1.2296,0,1.2714,1.2668,1.2654,1.262,1.2599,1.2593,1.2558,1.2536,1.2493,1.2478,1.2485,1.241,1.2386,1.233,1.2319,1.2304,1.2291,1.2304,1.225,1.2245,1.2241,1.2222,1.2215,1.2296,1.2296,1.2296,1.2296,0,1.2656,1.2624,1.2601,1.2561,1.2538,1.2504,1.2483,1.2461,1.2453,1.2435,1.2388,1.2359,1.2319,1.2305,1.2297,1.2248,1.2251,1.2255,1.2266,1.2234,1.2216,1.2209,1.2295,1.2295,1.2295,1.2295,0,0,1.2618,1.2572,1.2563,1.2544,1.2507,1.248,1.2445,1.2407,1.2386,1.2357,1.2324,1.2275,1.2277,1.2253,1.2242,1.2217,1.2178,1.2222,1.2221,1.2212,1.2118,1.2114,1.2106,1.2175,1.2174,1.2173,1.212,0,1.2576,1.2515,1.2501,1.2447,1.2415,1.2408,1.2376,1.2349,1.2331,1.23,1.228,1.2244,1.2251,1.2236,1.2211,1.2188,1.2158,1.2192,1.2141,1.214,1.2148,1.2097,1.2093,1.2045,1.2113,1.2112,1.2111,0,1.2519,1.2489,1.2432,1.2398,1.2384,1.2356,1.2319,1.229,1.2257,1.2246,1.222,1.2211,1.217,1.2185,1.2128,1.2151,1.2129,1.2115,1.2112,1.2104,1.2122,1.2085,1.203,1.2021,1.21,1.2101,1.2102,0,1.2493,1.2439,1.2397,1.2382,1.2341,1.2321,1.2303,1.2271,1.2249,1.2216,1.22,1.2162,1.2141,1.211,1.209,1.2104,1.2033,1.2047,1.2019,1.202,1.2003,1.2003,1.194,1.1994,1.1994,1.1994,1.1994,0,1.2446,1.2411,1.2385,1.2359,1.2318,1.2302,1.2262,1.2243,1.2215,1.2183,1.2174,1.2144,1.2121,1.2086,1.207,1.2023,1.2014,1.2001,1.1997,1.2,1.2002,1.1984,1.1986,1.1992,1.1993,1.1993,1.1993,0,1.241,1.2392,1.2345,1.2311,1.2301,1.2272,1.2241,1.2214,1.2197,1.2157,1.2146,1.2118,1.2077,1.2054,1.2003,1.1992,1.1938,1.1937,1.1949,1.1947,1.1919,1.1921,1.1839,1.1826,1.1892,1.1892,1.1891,0,1.2379,1.2352,1.2315,1.2294,1.2276,1.2242,1.2219,1.2202,1.2178,1.2138,1.2114,1.2074,1.204,1.1974,1.1947,1.1907,1.1902,1.1877,1.1896,1.19,1.1898,1.1899,1.1894,1.1872,1.1872,1.1871,1.1871,0,1.2327,1.2319,1.2287,1.2252,1.2225,1.2196,1.2167,1.2149,1.2127,1.2099,1.2058,1.2032,1.198,1.1937,1.1895,1.1873,1.1866,1.1866,1.1856,1.1858,1.1865,1.1858,1.1937,1.1867,1.1867,1.1867,1.1868,1.1868,1.229,1.2265,1.2234,1.2198,1.2175,1.2148,1.212,1.21,1.2066,1.2023,1.2014,1.197,1.1935,1.1878,1.1855,1.1818,1.1823,1.181,1.1806,1.1803,1.18,1.1874,1.1811,1.1811,1.1811,1.1811,1.1811,0,1.2234,1.2214,1.2182,1.2142,1.2113,1.2113,1.208,1.2055,1.2017,1.1986,1.1953,1.1904,1.1864,1.1834,1.1791,1.1767,1.1763,1.1756,1.1756,1.175,1.18,1.1811,1.176,1.176,1.176,1.176,1.176,1.176,1.2201,1.2157,1.2146,1.2089,1.2069,1.2027,1.2008,1.1981,1.1957,1.1903,1.187,1.1852,1.182,1.1775,1.1736,1.1728,1.1711,1.1704,1.1695,1.1742,1.1747,1.1752,1.1762,1.1702,1.1702,1.1648,1.1648,1.1647]}]]